2023/05/22 00:00:00, 0.1,14.9
2023/05/22 00:10:00, 0.1,14.8
2023/05/22 00:20:00, 0.1,14.7
2023/05/22 00:30:00, 0.1,14.6
2023/05/22 00:40:00, 0.0,14.7
2023/05/22 00:50:00, 0.1,14.8
2023/05/22 01:00:00, 0.1,14.6
2023/05/22 01:10:00, 0.1,14.8
2023/05/22 01:20:00, 0.1,14.9
2023/05/22 01:30:00, 0.1,14.9
2023/05/22 01:40:00, 0.1,14.9
2023/05/22 01:50:00, 0.1,15.0
2023/05/22 02:00:00, 0.2,14.9
2023/05/22 02:10:00, 0.2,15.1
2023/05/22 02:20:00, 0.2,14.9
2023/05/22 02:30:00, 0.2,15.0
2023/05/22 02:40:00, 0.2,14.9
2023/05/22 02:50:00, 0.2,14.8
2023/05/22 03:00:00, 0.2,14.6
2023/05/22 03:10:00, 0.2,14.5
2023/05/22 03:20:00, 0.2,14.7
2023/05/22 03:30:00, 0.2,14.7
2023/05/22 03:40:00, 0.2,14.4
2023/05/22 03:50:00, 0.2,14.5
2023/05/22 04:00:00, 0.2,14.4
2023/05/22 04:10:00, 0.2,13.9
2023/05/22 04:20:00, 0.2,13.7
2023/05/22 04:30:00, 0.2,13.7
2023/05/22 04:40:00, 0.2,13.7
2023/05/22 04:50:00, 0.2,13.9
2023/05/22 05:00:00, 0.2,13.7
2023/05/22 05:10:00, 0.1,13.5
2023/05/22 05:20:00, 0.1,13.6
2023/05/22 05:30:00, 0.1,13.7
2023/05/22 05:40:00, 0.1,13.4
2023/05/22 05:50:00, 0.1,13.4
2023/05/22 06:00:00, 0.1,13.6
2023/05/22 06:10:00, 0.1,13.6
2023/05/22 06:20:00, 0.1,14.4
2023/05/22 06:30:00, 0.1,14.3
2023/05/22 06:40:00, 0.2,15.2
2023/05/22 06:50:00, 0.1,15.2
2023/05/22 07:00:00, 0.2,15.2
2023/05/22 07:10:00, 0.1,16.3
2023/05/22 07:20:00, 0.2,16.5
2023/05/22 07:30:00, 0.1,16.7
2023/05/22 07:40:00, 0.1,16.8
2023/05/22 07:50:00, 0.1,16.9
2023/05/22 08:00:00, 0.2,17.9
2023/05/22 08:10:00, 0.2,17.9
2023/05/22 08:20:00, 0.2,17.5
2023/05/22 08:30:00, 0.2,17.9
2023/05/22 08:40:00, 0.1,19.3
2023/05/22 08:50:00, 0.2,21.0
2023/05/22 09:00:00, 0.2,21.2
2023/05/22 09:10:00, 0.2,20.5
2023/05/22 09:20:00, 0.2,21.9
2023/05/22 09:30:00, 0.2,22.0
2023/05/22 09:40:00, 0.2,22.7
2023/05/22 09:50:00, 0.2,22.8
2023/05/22 10:00:00, 0.1,23.2
2023/05/22 10:10:00, 0.1,24.2
2023/05/22 10:20:00, 0.2,24.7
2023/05/22 10:30:00, 0.1,25.0
2023/05/22 10:40:00, 0.2,24.8
2023/05/22 10:50:00, 0.1,24.7
2023/05/22 11:00:00, 0.2,26.3
2023/05/22 11:10:00, 0.2,25.9
2023/05/22 11:20:00, 0.1,25.8
2023/05/22 11:30:00, 0.1,25.8
2023/05/22 11:40:00, 0.1,25.1
2023/05/22 11:50:00, 0.1,24.4
2023/05/22 12:00:00, 0.0,23.6
2023/05/22 12:10:00, 0.0,23.6
2023/05/22 12:20:00, 0.0,23.0
2023/05/22 12:30:00, 0.0,22.7
2023/05/22 12:40:00, 0.0,21.0
2023/05/22 12:50:00, 0.0,20.2
2023/05/22 13:00:00, 0.0,19.9
2023/05/22 13:10:00, 0.0,18.8
2023/05/22 13:20:00, 0.1,18.2
2023/05/22 13:30:00, 0.1,18.0
2023/05/22 13:40:00, 0.1,17.9
2023/05/22 13:50:00, 0.1,17.6
2023/05/22 14:00:00, 0.1,17.6
2023/05/22 14:10:00, 0.2,17.6
2023/05/22 14:20:00, 0.2,17.5
2023/05/22 14:30:00, 0.2,17.6
2023/05/22 14:40:00, 0.1,17.4
2023/05/22 14:50:00, 0.1,17.7
2023/05/22 15:00:00, 0.1,17.4
2023/05/22 15:10:00, 0.1,18.0
2023/05/22 15:20:00, 0.1,18.3
2023/05/22 15:30:00, 0.2,18.0
2023/05/22 15:40:00, 0.1,17.5
2023/05/22 15:50:00, 0.2,17.4
2023/05/22 16:00:00, 0.2,16.8
2023/05/22 16:10:00, 0.2,17.2
2023/05/22 16:20:00, 0.1,17.1
2023/05/22 16:30:00, 0.2,16.9
2023/05/22 16:40:00, 0.2,16.7
2023/05/22 16:50:00, 0.2,16.8
2023/05/22 17:00:00, 0.1,16.6
2023/05/22 17:10:00, 0.2,16.7
2023/05/22 17:20:00, 0.1,16.4
2023/05/22 17:30:00, 0.1,16.6
2023/05/22 17:40:00, 0.1,16.4
2023/05/22 17:50:00, 0.1,16.3
2023/05/22 18:00:00, 0.1,16.3
2023/05/22 18:10:00, 0.2,16.7
2023/05/22 18:20:00, 0.2,16.3
2023/05/22 18:30:00, 0.1,16.3
2023/05/22 18:40:00, 0.1,15.9
2023/05/22 18:50:00, 0.1,15.9
2023/05/22 19:00:00, 0.1,15.9
2023/05/22 19:10:00, 0.1,15.4
2023/05/22 19:20:00, 0.1,15.5
2023/05/22 19:30:00, 0.1,15.2
2023/05/22 19:40:00, 0.1,15.4
2023/05/22 19:50:00, 0.1,15.0
2023/05/22 20:00:00, 0.1,15.2
2023/05/22 20:10:00, 0.2,14.8
2023/05/22 20:20:00, 0.2,14.8
2023/05/22 20:30:00, 0.2,14.4
2023/05/22 20:40:00, 0.2,14.5
2023/05/22 20:50:00, 0.2,14.5
2023/05/22 21:00:00, 0.1,14.2
2023/05/22 21:10:00, 0.2,14.2
2023/05/22 21:20:00, 0.1,14.1
2023/05/22 21:30:00, 0.1,14.0
2023/05/22 21:40:00, 0.2,13.9
2023/05/22 21:50:00, 0.2,13.7
2023/05/22 22:00:00, 0.1,13.8
2023/05/22 22:10:00, 0.2,13.7
2023/05/22 22:20:00, 0.2,13.4
2023/05/22 22:30:00, 0.2,13.2
2023/05/22 22:40:00, 0.2,13.2
2023/05/22 22:50:00, 0.2,13.2
2023/05/22 23:00:00, 0.2,13.2
2023/05/22 23:10:00, 0.2,13.2
2023/05/22 23:20:00, 0.2,13.1
2023/05/22 23:30:00, 0.2,13.1
2023/05/22 23:40:00, 0.2,13.0
2023/05/22 23:50:00, 0.1,12.9
